QFA421 YSSY-YMML

Flight info

Callsign QFA421
Flight time 1h 13m
Altitude 38000
Route WOL H65 LEECE Q29 ML
Aircraft A332/H-SDE3GHIJ2J3J5M1RVWXY/LB2D1

Departure

Time 2026-05-06 23:31
Airport Sydney Kingsford Smith International Airport (YSSY)

Arrival

Time 2026-05-07 00:44
Airport Melbourne Airport (YMML)
Time Latitude Longitude Altitude Speed Heading
2026-05-06 23:01 -33.93223 151.17673 34 ft 0 kts 71°
2026-05-06 23:19 -33.93227 151.17659 34 ft 4 kts 72°
2026-05-06 23:19 -33.93234 151.17628 32 ft 4 kts 78°
2026-05-06 23:20 -33.93238 151.17596 34 ft 4 kts 88°
2026-05-06 23:20 -33.93235 151.17565 32 ft 4 kts 120°
2026-05-06 23:20 -33.93225 151.17552 31 ft 0 kts 168°
2026-05-06 23:22 -33.93232 151.17553 34 ft 3 kts 168°
2026-05-06 23:23 -33.93277 151.17565 34 ft 10 kts 168°
2026-05-06 23:23 -33.93355 151.17556 34 ft 13 kts 211°
2026-05-06 23:23 -33.93455 151.17508 33 ft 17 kts 188°
2026-05-06 23:23 -33.93575 151.17522 33 ft 19 kts 164°
2026-05-06 23:24 -33.93708 151.17560 32 ft 21 kts 167°
2026-05-06 23:24 -33.93855 151.17600 33 ft 23 kts 167°
2026-05-06 23:24 -33.94008 151.17640 32 ft 23 kts 166°
2026-05-06 23:24 -33.94165 151.17683 33 ft 23 kts 167°
2026-05-06 23:25 -33.94325 151.17732 33 ft 24 kts 166°
2026-05-06 23:25 -33.94494 151.17782 34 ft 26 kts 166°
2026-05-06 23:25 -33.94672 151.17832 33 ft 26 kts 168°
2026-05-06 23:25 -33.94784 151.17861 34 ft 17 kts 168°
2026-05-06 23:26 -33.94906 151.17893 34 ft 19 kts 167°
2026-05-06 23:26 -33.95043 151.17928 34 ft 21 kts 168°
2026-05-06 23:26 -33.95171 151.17951 34 ft 12 kts 196°
2026-05-06 23:26 -33.95210 151.17889 34 ft 7 kts 250°
2026-05-06 23:27 -33.95223 151.17825 33 ft 11 kts 258°
2026-05-06 23:27 -33.95246 151.17699 32 ft 18 kts 257°
2026-05-06 23:27 -33.95317 151.17588 33 ft 18 kts 198°
2026-05-06 23:27 -33.95442 151.17604 33 ft 19 kts 169°
2026-05-06 23:28 -33.95580 151.17638 34 ft 21 kts 167°
2026-05-06 23:28 -33.95729 151.17678 34 ft 23 kts 167°
2026-05-06 23:28 -33.95891 151.17722 34 ft 24 kts 168°
2026-05-06 23:28 -33.96063 151.17766 34 ft 26 kts 167°
2026-05-06 23:29 -33.96245 151.17814 34 ft 28 kts 168°
2026-05-06 23:29 -33.96400 151.17861 34 ft 15 kts 152°
2026-05-06 23:29 -33.96444 151.17946 34 ft 0 kts 82°
2026-05-06 23:29 -33.96441 151.17961 34 ft 6 kts 76°
2026-05-06 23:30 -33.96410 151.18036 34 ft 13 kts 41°
2026-05-06 23:30 -33.96294 151.18030 33 ft 28 kts 348°
2026-05-06 23:30 -33.95868 151.17920 32 ft 100 kts 347°
2026-05-06 23:30 -33.94951 151.17692 104 ft 159 kts 347°
2026-05-06 23:31 -33.93795 151.17384 626 ft 181 kts 344°
2026-05-06 23:31 -33.92506 151.17002 1261 ft 204 kts 343°
2026-05-06 23:31 -33.91039 151.16674 2037 ft 224 kts 345°
2026-05-06 23:31 -33.89512 151.16115 2944 ft 229 kts 326°
2026-05-06 23:32 -33.88327 151.14914 3863 ft 226 kts 300°
2026-05-06 23:32 -33.87668 151.13190 4834 ft 233 kts 287°
2026-05-06 23:32 -33.87087 151.11306 5829 ft 246 kts 288°
2026-05-06 23:32 -33.86487 151.09311 6920 ft 254 kts 288°
2026-05-06 23:33 -33.85922 151.07366 7994 ft 231 kts 287°
2026-05-06 23:33 -33.85614 151.05670 8750 ft 187 kts 281°
2026-05-06 23:33 -33.85423 151.04209 9270 ft 181 kts 281°
2026-05-06 23:33 -33.85315 151.02611 10043 ft 203 kts 270°
2026-05-06 23:34 -33.85436 151.00845 10830 ft 221 kts 270°
2026-05-06 23:34 -33.85564 150.98980 11682 ft 227 kts 270°
2026-05-06 23:34 -33.85701 150.97010 12204 ft 247 kts 270°
2026-05-06 23:34 -33.85884 150.94855 12590 ft 272 kts 265°
2026-05-06 23:35 -33.86562 150.92613 13088 ft 303 kts 245°
2026-05-06 23:35 -33.88033 150.90662 13807 ft 324 kts 231°
2026-05-06 23:35 -33.89859 150.88979 14535 ft 340 kts 220°
2026-05-06 23:35 -33.92067 150.87779 15262 ft 356 kts 209°
2026-05-06 23:36 -33.94507 150.86986 15986 ft 370 kts 200°
2026-05-06 23:36 -33.97077 150.86474 16699 ft 378 kts 197°
2026-05-06 23:36 -33.99709 150.86065 17404 ft 384 kts 196°
2026-05-06 23:36 -34.02385 150.85696 18108 ft 389 kts 195°
2026-05-06 23:37 -34.05098 150.85344 18751 ft 396 kts 195°
2026-05-06 23:37 -34.07865 150.84993 19239 ft 403 kts 195°
2026-05-06 23:37 -34.10671 150.84645 19828 ft 407 kts 195°
2026-05-06 23:37 -34.13502 150.84297 20433 ft 411 kts 195°
2026-05-06 23:38 -34.16358 150.83947 21011 ft 415 kts 195°
2026-05-06 23:38 -34.19245 150.83593 21551 ft 419 kts 195°
2026-05-06 23:38 -34.22159 150.83236 22130 ft 422 kts 195°
2026-05-06 23:38 -34.25096 150.82875 22705 ft 426 kts 195°
2026-05-06 23:39 -34.28060 150.82509 23195 ft 434 kts 195°
2026-05-06 23:39 -34.31093 150.82132 23583 ft 441 kts 195°
2026-05-06 23:39 -34.34158 150.81756 24051 ft 444 kts 195°
2026-05-06 23:39 -34.37243 150.81379 24520 ft 447 kts 195°
2026-05-06 23:40 -34.40351 150.80997 24962 ft 450 kts 195°
2026-05-06 23:40 -34.43481 150.80612 25397 ft 453 kts 195°
2026-05-06 23:40 -34.46625 150.80228 25866 ft 455 kts 195°
2026-05-06 23:40 -34.49751 150.79677 26266 ft 453 kts 202°
2026-05-06 23:41 -34.52710 150.78534 26517 ft 441 kts 216°
2026-05-06 23:41 -34.55285 150.76736 26953 ft 425 kts 228°
2026-05-06 23:41 -34.57465 150.74425 27402 ft 409 kts 239°
2026-05-06 23:41 -34.59190 150.71774 27933 ft 394 kts 249°
2026-05-06 23:42 -34.60626 150.68958 28404 ft 391 kts 251°
2026-05-06 23:42 -34.61971 150.66093 28869 ft 391 kts 253°
2026-05-06 23:42 -34.63276 150.63196 29311 ft 392 kts 253°
2026-05-06 23:42 -34.64576 150.60278 29692 ft 394 kts 253°
2026-05-06 23:43 -34.65886 150.57354 30113 ft 396 kts 253°
2026-05-06 23:43 -34.67215 150.54415 30428 ft 398 kts 253°
2026-05-06 23:43 -34.68562 150.51460 30755 ft 401 kts 252°
2026-05-06 23:43 -34.69922 150.48494 31097 ft 402 kts 252°
2026-05-06 23:44 -34.71289 150.45525 31531 ft 403 kts 251°
2026-05-06 23:44 -34.72655 150.42562 31961 ft 401 kts 251°
2026-05-06 23:44 -34.74014 150.39617 32517 ft 397 kts 251°
2026-05-06 23:44 -34.75355 150.36714 33102 ft 392 kts 251°
2026-05-06 23:45 -34.76682 150.33829 33589 ft 390 kts 250°
2026-05-06 23:45 -34.77997 150.30955 34024 ft 389 kts 250°
2026-05-06 23:45 -34.78868 150.29048 34286 ft 388 kts 250°
2026-05-06 23:45 -34.80182 150.26167 34518 ft 392 kts 250°
2026-05-06 23:46 -34.81508 150.23248 34698 ft 395 kts 250°
2026-05-06 23:46 -34.82839 150.20325 35009 ft 396 kts 250°
2026-05-06 23:46 -34.84174 150.17399 35342 ft 395 kts 250°
2026-05-06 23:46 -34.85508 150.14475 35633 ft 395 kts 249°
2026-05-06 23:47 -34.86843 150.11543 35903 ft 396 kts 249°
2026-05-06 23:47 -34.88181 150.08604 36160 ft 397 kts 249°
2026-05-06 23:47 -34.89520 150.05658 36441 ft 398 kts 249°
2026-05-06 23:47 -34.90860 150.02707 36716 ft 398 kts 249°
2026-05-06 23:48 -34.92201 149.99752 36999 ft 399 kts 249°
2026-05-06 23:48 -34.93543 149.96793 37323 ft 399 kts 249°
2026-05-06 23:48 -34.94892 149.93811 37419 ft 405 kts 249°
2026-05-06 23:48 -34.96254 149.90793 37566 ft 407 kts 249°
2026-05-06 23:49 -34.97622 149.87767 37824 ft 407 kts 248°
2026-05-06 23:49 -34.98993 149.84738 38038 ft 409 kts 248°
2026-05-06 23:49 -35.00367 149.81697 38274 ft 410 kts 248°
2026-05-06 23:49 -35.01740 149.78656 38505 ft 410 kts 248°
2026-05-06 23:50 -35.03119 149.75597 38728 ft 411 kts 248°
2026-05-06 23:50 -35.05875 149.69475 39163 ft 411 kts 248°
2026-05-06 23:50 -35.07251 149.66416 39415 ft 411 kts 248°
2026-05-06 23:51 -35.08624 149.63359 39553 ft 413 kts 248°
2026-05-06 23:51 -35.10004 149.60280 39700 ft 414 kts 248°
2026-05-06 23:51 -35.11384 149.57201 39937 ft 413 kts 247°
2026-05-06 23:51 -35.12763 149.54123 40070 ft 414 kts 247°
2026-05-06 23:52 -35.15554 149.47869 40101 ft 424 kts 247°
2026-05-06 23:52 -35.18401 149.41487 40069 ft 429 kts 246°
2026-05-06 23:53 -35.21256 149.35089 40080 ft 428 kts 246°
2026-05-06 23:53 -35.24102 149.28697 40050 ft 427 kts 246°
2026-05-06 23:54 -35.26938 149.22307 40048 ft 427 kts 246°
2026-05-06 23:54 -35.30227 149.16196 40047 ft 432 kts 240°
2026-05-06 23:55 -35.33769 149.10256 40049 ft 432 kts 239°
2026-05-06 23:55 -35.37308 149.04357 40098 ft 432 kts 239°
2026-05-06 23:56 -35.40864 148.98427 40099 ft 431 kts 239°
2026-05-06 23:56 -35.44412 148.92501 40099 ft 431 kts 239°
2026-05-06 23:57 -35.47956 148.86571 40111 ft 431 kts 239°
2026-05-06 23:57 -35.51500 148.80634 40126 ft 431 kts 238°
2026-05-06 23:58 -35.55047 148.74680 40124 ft 432 kts 238°
2026-05-06 23:58 -35.58580 148.68743 40137 ft 428 kts 238°
2026-05-06 23:59 -35.62081 148.62846 40135 ft 426 kts 238°
2026-05-06 23:59 -35.65568 148.56961 40153 ft 427 kts 238°
2026-05-07 00:00 -35.69064 148.51051 40151 ft 428 kts 238°
2026-05-07 00:00 -35.72561 148.45131 40162 ft 427 kts 238°
2026-05-07 00:01 -35.76042 148.39229 40157 ft 425 kts 238°
2026-05-07 00:01 -35.79509 148.33341 40176 ft 425 kts 238°
2026-05-07 00:02 -35.82977 148.27438 40173 ft 426 kts 238°
2026-05-07 00:02 -35.86446 148.21525 40185 ft 426 kts 238°
2026-05-07 00:03 -35.89915 148.15602 40175 ft 425 kts 238°
2026-05-07 00:03 -35.93370 148.09695 40197 ft 424 kts 238°
2026-05-07 00:04 -35.96804 148.03810 40183 ft 426 kts 238°
2026-05-07 00:04 -36.00273 147.97858 40186 ft 427 kts 238°
2026-05-07 00:05 -36.03741 147.91896 40165 ft 427 kts 238°
2026-05-07 00:05 -36.07199 147.85941 40185 ft 427 kts 238°
2026-05-07 00:06 -36.10654 147.79981 40189 ft 426 kts 238°
2026-05-07 00:06 -36.14105 147.74018 40182 ft 426 kts 238°
2026-05-07 00:07 -36.17553 147.68050 40182 ft 426 kts 238°
2026-05-07 00:07 -36.20997 147.62079 40188 ft 426 kts 237°
2026-05-07 00:08 -36.24442 147.56094 40189 ft 428 kts 237°
2026-05-07 00:08 -36.27896 147.50084 40187 ft 428 kts 237°
2026-05-07 00:09 -36.31346 147.44071 40188 ft 428 kts 237°
2026-05-07 00:09 -36.34794 147.38049 40195 ft 428 kts 237°
2026-05-07 00:10 -36.38186 147.32119 39869 ft 414 kts 237°
2026-05-07 00:10 -36.39839 147.29225 39651 ft 408 kts 237°
2026-05-07 00:10 -36.41465 147.26375 39433 ft 401 kts 237°
2026-05-07 00:11 -36.43065 147.23568 39212 ft 395 kts 237°
2026-05-07 00:11 -36.44644 147.20795 38989 ft 392 kts 237°
2026-05-07 00:11 -36.46207 147.18048 38823 ft 386 kts 237°
2026-05-07 00:11 -36.47743 147.15345 38615 ft 380 kts 236°
2026-05-07 00:12 -36.49260 147.12673 38288 ft 377 kts 236°
2026-05-07 00:12 -36.50767 147.10018 37943 ft 374 kts 236°
2026-05-07 00:12 -36.52239 147.07423 37676 ft 370 kts 235°
2026-05-07 00:12 -36.53715 147.04817 37374 ft 367 kts 235°
2026-05-07 00:13 -36.55178 147.02234 37071 ft 364 kts 235°
2026-05-07 00:13 -36.56628 146.99672 36776 ft 361 kts 235°
2026-05-07 00:13 -36.58065 146.97132 36480 ft 357 kts 234°
2026-05-07 00:13 -36.59493 146.94603 36048 ft 357 kts 234°
2026-05-07 00:14 -36.60924 146.92068 35585 ft 358 kts 234°
2026-05-07 00:14 -36.62358 146.89528 35132 ft 359 kts 233°
2026-05-07 00:14 -36.63794 146.86981 34647 ft 361 kts 233°
2026-05-07 00:14 -36.65238 146.84418 34155 ft 363 kts 233°
2026-05-07 00:15 -36.66688 146.81842 33593 ft 363 kts 232°
2026-05-07 00:15 -36.68135 146.79268 33083 ft 362 kts 231°
2026-05-07 00:15 -36.69579 146.76700 32587 ft 361 kts 231°
2026-05-07 00:15 -36.71019 146.74136 32051 ft 361 kts 230°
2026-05-07 00:16 -36.72459 146.71570 31527 ft 362 kts 230°
2026-05-07 00:16 -36.73902 146.68997 30968 ft 363 kts 229°
2026-05-07 00:16 -36.75349 146.66417 30401 ft 363 kts 227°
2026-05-07 00:16 -36.76788 146.63846 29937 ft 359 kts 227°
2026-05-07 00:17 -36.78206 146.61307 29512 ft 354 kts 226°
2026-05-07 00:17 -36.79598 146.58812 29098 ft 348 kts 226°
2026-05-07 00:17 -36.80970 146.56353 28691 ft 343 kts 226°
2026-05-07 00:17 -36.82327 146.53924 28288 ft 339 kts 226°
2026-05-07 00:18 -36.83665 146.51524 27898 ft 334 kts 226°
2026-05-07 00:18 -36.84984 146.49157 27481 ft 330 kts 226°
2026-05-07 00:18 -36.86284 146.46822 27082 ft 325 kts 225°
2026-05-07 00:18 -36.87566 146.44521 26703 ft 321 kts 225°
2026-05-07 00:19 -36.88816 146.42275 26307 ft 317 kts 225°
2026-05-07 00:19 -36.90087 146.39992 25924 ft 314 kts 224°
2026-05-07 00:19 -36.91328 146.37758 25544 ft 312 kts 224°
2026-05-07 00:19 -36.92542 146.35574 25170 ft 309 kts 224°
2026-05-07 00:20 -36.93763 146.33374 24796 ft 307 kts 224°
2026-05-07 00:20 -36.94972 146.31193 24393 ft 304 kts 223°
2026-05-07 00:20 -36.96187 146.29012 24061 ft 313 kts 223°
2026-05-07 00:20 -36.97466 146.26732 23664 ft 325 kts 223°
2026-05-07 00:21 -36.98758 146.24401 23208 ft 325 kts 224°
2026-05-07 00:21 -37.00030 146.22086 22820 ft 322 kts 224°
2026-05-07 00:21 -37.01294 146.19787 22439 ft 320 kts 224°
2026-05-07 00:21 -37.02556 146.17500 22040 ft 319 kts 225°
2026-05-07 00:22 -37.03815 146.15218 21654 ft 318 kts 225°
2026-05-07 00:22 -37.05070 146.12944 21264 ft 317 kts 225°
2026-05-07 00:22 -37.06320 146.10676 20862 ft 316 kts 226°
2026-05-07 00:22 -37.07567 146.08414 20486 ft 315 kts 226°
2026-05-07 00:23 -37.08810 146.06155 20104 ft 315 kts 227°
2026-05-07 00:23 -37.10050 146.03901 19657 ft 314 kts 226°
2026-05-07 00:23 -37.11274 146.01673 19306 ft 308 kts 226°
2026-05-07 00:23 -37.12477 145.99477 18931 ft 304 kts 226°
2026-05-07 00:24 -37.13673 145.97299 18561 ft 303 kts 227°
2026-05-07 00:24 -37.14864 145.95131 18107 ft 301 kts 227°
2026-05-07 00:24 -37.16053 145.92963 17737 ft 302 kts 227°
2026-05-07 00:24 -37.17242 145.90794 17342 ft 301 kts 228°
2026-05-07 00:25 -37.18419 145.88640 16975 ft 297 kts 229°
2026-05-07 00:25 -37.19574 145.86527 16598 ft 291 kts 229°
2026-05-07 00:25 -37.20707 145.84452 16230 ft 286 kts 230°
2026-05-07 00:25 -37.21821 145.82414 15881 ft 281 kts 230°
2026-05-07 00:26 -37.22920 145.80406 15514 ft 278 kts 230°
2026-05-07 00:26 -37.24009 145.78415 15141 ft 276 kts 231°
2026-05-07 00:26 -37.25086 145.76442 14814 ft 272 kts 231°
2026-05-07 00:26 -37.26151 145.74489 14475 ft 271 kts 231°
2026-05-07 00:27 -37.27216 145.72537 14132 ft 271 kts 232°
2026-05-07 00:27 -37.28282 145.70582 13746 ft 271 kts 232°
2026-05-07 00:27 -37.29346 145.68627 13387 ft 271 kts 232°
2026-05-07 00:27 -37.30420 145.66689 13054 ft 269 kts 232°
2026-05-07 00:28 -37.31509 145.64791 12749 ft 267 kts 231°
2026-05-07 00:28 -37.32599 145.62904 12400 ft 266 kts 231°
2026-05-07 00:28 -37.33684 145.61027 12050 ft 265 kts 231°
2026-05-07 00:28 -37.34751 145.59183 11713 ft 264 kts 231°
2026-05-07 00:29 -37.35826 145.57323 11367 ft 262 kts 231°
2026-05-07 00:29 -37.36894 145.55474 11015 ft 261 kts 231°
2026-05-07 00:30 -37.40019 145.50054 10324 ft 241 kts 231°
2026-05-07 00:30 -37.40983 145.48378 10184 ft 234 kts 231°
2026-05-07 00:30 -37.41935 145.46727 9868 ft 234 kts 230°
2026-05-07 00:30 -37.42895 145.45064 9523 ft 236 kts 231°
2026-05-07 00:31 -37.43881 145.43356 9251 ft 245 kts 231°
2026-05-07 00:31 -37.44886 145.41611 9025 ft 246 kts 231°
2026-05-07 00:31 -37.45658 145.39656 8423 ft 260 kts 253°
2026-05-07 00:31 -37.45587 145.37384 8308 ft 262 kts 274°
2026-05-07 00:32 -37.45427 145.35134 8255 ft 256 kts 263°
2026-05-07 00:32 -37.45458 145.32896 8198 ft 256 kts 262°
2026-05-07 00:32 -37.45511 145.30658 8150 ft 256 kts 262°
2026-05-07 00:32 -37.45560 145.28422 8096 ft 256 kts 262°
2026-05-07 00:33 -37.45603 145.26183 7983 ft 256 kts 262°
2026-05-07 00:33 -37.45641 145.23940 7613 ft 257 kts 262°
2026-05-07 00:33 -37.45665 145.22447 7287 ft 258 kts 262°
2026-05-07 00:33 -37.45698 145.20165 6861 ft 257 kts 262°
2026-05-07 00:34 -37.45732 145.17916 6431 ft 257 kts 262°
2026-05-07 00:34 -37.45765 145.15703 6041 ft 255 kts 262°
2026-05-07 00:34 -37.45795 145.13493 5689 ft 250 kts 262°
2026-05-07 00:34 -37.45822 145.11320 5358 ft 247 kts 263°
2026-05-07 00:35 -37.45852 145.09146 5030 ft 244 kts 262°
2026-05-07 00:35 -37.45880 145.07062 4664 ft 240 kts 263°
2026-05-07 00:35 -37.45910 145.04953 4323 ft 241 kts 263°
2026-05-07 00:35 -37.45941 145.02857 3984 ft 239 kts 263°
2026-05-07 00:36 -37.45973 145.00771 3638 ft 238 kts 263°
2026-05-07 00:36 -37.45998 144.98706 3326 ft 233 kts 263°
2026-05-07 00:36 -37.46014 144.96710 3164 ft 224 kts 263°
2026-05-07 00:36 -37.46031 144.94790 3027 ft 217 kts 262°
2026-05-07 00:37 -37.46059 144.92868 3004 ft 222 kts 262°
2026-05-07 00:37 -37.46090 144.90905 3008 ft 225 kts 262°
2026-05-07 00:37 -37.46115 144.88932 3000 ft 225 kts 262°
2026-05-07 00:37 -37.46138 144.86963 3001 ft 225 kts 263°
2026-05-07 00:38 -37.46160 144.84996 3006 ft 225 kts 263°
2026-05-07 00:38 -37.46216 144.83042 2994 ft 217 kts 255°
2026-05-07 00:38 -37.46866 144.81521 2994 ft 191 kts 216°
2026-05-07 00:38 -37.48031 144.80927 3018 ft 175 kts 195°
2026-05-07 00:39 -37.49194 144.80730 3005 ft 164 kts 189°
2026-05-07 00:39 -37.50344 144.80748 3002 ft 166 kts 181°
2026-05-07 00:39 -37.51479 144.80923 2998 ft 163 kts 179°
2026-05-07 00:39 -37.52603 144.81131 2994 ft 163 kts 178°
2026-05-07 00:40 -37.53717 144.81338 2860 ft 158 kts 179°
2026-05-07 00:40 -37.54800 144.81532 2634 ft 158 kts 179°
2026-05-07 00:40 -37.55879 144.81730 2388 ft 153 kts 179°
2026-05-07 00:40 -37.56898 144.81923 2169 ft 144 kts 180°
2026-05-07 00:41 -37.57872 144.82103 1984 ft 139 kts 181°
2026-05-07 00:41 -37.58816 144.82279 1782 ft 135 kts 181°
2026-05-07 00:41 -37.59729 144.82450 1586 ft 128 kts 180°
2026-05-07 00:41 -37.60564 144.82606 1394 ft 116 kts 181°
2026-05-07 00:42 -37.61344 144.82749 1255 ft 114 kts 178°
2026-05-07 00:42 -37.62143 144.82897 1089 ft 118 kts 178°
2026-05-07 00:42 -37.62954 144.83049 931 ft 118 kts 179°
2026-05-07 00:42 -37.63762 144.83217 737 ft 117 kts 177°
2026-05-07 00:43 -37.64575 144.83358 636 ft 119 kts 178°
2026-05-07 00:43 -37.65393 144.83507 482 ft 119 kts 176°
2026-05-07 00:43 -37.66182 144.83655 414 ft 99 kts 173°
2026-05-07 00:43 -37.66700 144.83748 399 ft 62 kts 171°
2026-05-07 00:44 -37.66996 144.83838 390 ft 34 kts 153°
2026-05-07 00:44 -37.67153 144.83976 384 ft 21 kts 141°
2026-05-07 00:44 -37.67198 144.84025 383 ft 0 kts 134°
2026-05-07 00:44 -37.67203 144.84035 383 ft 5 kts 124°
2026-05-07 00:45 -37.67221 144.84114 383 ft 13 kts 95°
2026-05-07 00:45 -37.67181 144.84242 386 ft 15 kts 44°
2026-05-07 00:45 -37.67106 144.84251 387 ft 12 kts 353°
2026-05-07 00:45 -37.67022 144.84236 389 ft 13 kts 352°
2026-05-07 00:46 -37.66928 144.84218 391 ft 14 kts 351°
2026-05-07 00:46 -37.66849 144.84203 392 ft 7 kts 352°
2026-05-07 00:46 -37.66797 144.84194 395 ft 6 kts 352°
2026-05-07 00:46 -37.66758 144.84187 396 ft 2 kts 352°
2026-05-07 00:47 -37.66738 144.84184 397 ft 3 kts 352°
2026-05-07 00:47 -37.66712 144.84179 395 ft 4 kts 351°
2026-05-07 00:47 -37.66683 144.84173 400 ft 4 kts 351°
2026-05-07 00:47 -37.66650 144.84168 398 ft 6 kts 355°
2026-05-07 00:48 -37.66598 144.84182 402 ft 10 kts 22°
2026-05-07 00:48 -37.66545 144.84243 404 ft 11 kts 57°